SCP
0 0 0 -0 0 0 0 0 0 0 0 0 -0 0 -0 0 0 0 0 0 0 0 0 0 0 0 0 0 0 0 0 -0 -0 -0 0 0 0 0 0 0 0 0 0 0
0 -0 -0 -0 0 0 0 0 0 0 0 0 -0 -0 -0 -0 0 0 0 0 0 0 0 0 -0 0 0 0 -0 0 -0 -0 -0 -0 -0 0 0 0 0 0 0 0 0 0
0 0 -0 -0 0 -0 0 0 0 0 0 -0 -0 -0 -0 -0 0 0 0 0 0 0 0 0 0 0 0 0 0 -0 0 -0 -0 0 0 0 0 0 0 0 0 0 0 0
0 0 0 0 0 0 0 0 0 -0 0 0 0 -0 0 0 0 0 0 0 0 0 0 0 0 0 0 0 0 0 -0 0 0 0 0 0 0 0 0 -0 -0 0 0 0
-0 0 0 0 0 0 0 0 0 0 0 0 0 0 0 0 0 0 0 0 0 0 0 0 0 0 0 0 0 0 0 0 0 0 0 -0 0 0 0 0 0 0 0 0
-0 -0 0 0 0 0 0 0 0 0 0 0 -0 -0 0 0 0 0 0 0 0 0 0 0 0 0 0 0 0 0 0 0 0 0 0 0 0 0 0 0 0 0 0 0
0 0 0 0 0 0 0 0 0 0 0 -0 -0 -0 0 0 0 0 0 0 0 0 0 0 0 0 0 0 0 0 0 0 0 0 0 0 0 0 0 0 0 0 0 0
0 0 0 0 0 0 0 0 0 0 0 -0 -0 0 -0 -0 0 0 0 0 0 0 0 0 0 0 0 0 0 0 0 0 0 0 0 0 0 0 0 0 0 0 0 0
0 0 0 0 0 0 0 0 0 0 0 0 0 0 0 0 0 0 0 0 0 0 0 0 0 0 0 0 0 0 0 0 0 0 0 0 0 0 0 0 0 0 0 0
0 0 0 0 0 0 0 0 0 0 0 0 0 0 0 0 0 0 0 0 0 0 0 0 0 0 0 0 0 0 0 0 0 0 0 0 0 0 0 0 0 0 0 0
0 0 0 0 0 0 0 0 0 0 0 0 0 0 0 -0 0 0 0 0 0 0 0 0 0 0 0 0 0 0 0 0 0 0 0 0 0 0 0 0 0 0 0 0
0 0 0 0 0 0 0 0 0 0 0 0 0 0 0 0 0 0 0 0 0 0 0 0 0 0 0 0 0 0 0 0 0 0 0 0 0 0 0 0 0 0 0 0
0 0 0 0 0 0 0 0 0 0 0 0 0 0 0 0 0 0 0 0 0 0 0 0 0 0 0 0 0 0 0 0 0 0 0 0 0 0 0 0 0 0 0 0
0 0 0 0 0 0 0 0 0 0 0 0 0 0 0 0 0 0 0 0 0 0 0 0 0 0 0 0 0 0 0 0 0 0 0 0 0 0 0 0 0 0 0 0
0 0 0 0 0 0 0 0 0 -0 0 0 0 0 0 0 0 0 0 0 0 0 0 0 0 0 0 0 0 0 0 0 0 0 0 0 0 0 0 0 0 0 0 0
0 0 0 0 0 0 0 0 -0 0 0 0 0 0 0 0 0 0 0 0 0 0 0 0 0 0 0 0 0 0 0 0 0 0 0 0 0 0 0 0 0 0 0 0
0 0 0 0 0 0 0 -0 -0 -0 -0 -0 -0 -0 0 0 0 0 0 0 0 0 0 0 0 0 0 0 0 0 0 0 0 0 0 0 0 0 0 0 0 0 0 0
0 0 0 0 0 0 0 0 -0 -0 0 -0 -0 -0 -0 -0 -0 0 0 0 0 0 0 0 0 0 0 0 0 0 0 0 0 0 0 0 0 0 0 0 0 0 0 0
-0 0 -0 0 0 0 -0 0 0 0 0 -0 -0 -0 -0 -0 0 0 0 0 0 0 0 0 0 0 0 0 0 0 0 0 0 0 0 0 0 0 0 0 0 0 0 0
-0 -0 -0 -0 -0 0 -0 -0 0 -0 0 0 0 0 0 0 -0 -0 -0 -0 -0 0 0 0 0 0 0 0 0 0 0 0 0 0 0 0 0 0 0 0 0 0 0 0
-0 -0 0 0 0 0 0 0 0 0 -0 0 0 0 0 -0 0 0 0 0 0 0 0 0 0 0 0 0 0 0 0 0 0 0 0 0 0 0 0 0 0 0 0 0
0 0 0 0 0 0 0 0 0 0 0 0 0 0 0 0 0 0 0 0 0 0 0 0 0 0 0 0 0 0 0 0 0 0 0 0 0 0 0 0 0 0 0 0
0 0 0 0 0 0 0 0 0 0 0 0 0 0 0 -0 -0 -0 -0 -0 0 0 0 0 0 0 0 0 0 0 0 0 0 0 0 0 0 0 0 0 0 0 0 0
0 0 0 0 0 0 0 0 0 0 0 0 0 0 0 0 0 0 0 0 0 0 0 0 0 0 0 0 0 0 0 0 0 0 0 0 0 0 0 0 0 0 0 0
0 0 0 0 0 0 0 0 0 0 0 0 0 0 0 0 0 0 0 0 0 0 0 0 0 0 0 0 0 0 0 0 0 0 0 0 0 0 0 0 0 0 0 0
0 0 0 0 0 0 0 0 0 0 0 0 0 0 0 0 0 0 0 0 0 0 0 0 0 0 0 0 0 0 0 0 0 0 0 0 0 0 0 0 0 0 0 0
Wind_Speed_500mb
11 8 12 22 23 3 5 17 22 8 21 17 14 3 11 31 33 45 31 18 37 58 50 29 23 46 64 60 57 48 59 55 55 47 63 57 48 42 43 43 43 38 42 39
8 17 16 22 21 18 4 20 13 19 22 7 13 4 10 13 29 39 28 14 23 45 55 57 55 42 60 63 90 65 63 56 60 55 63 64 57 44 63 46 50 48 48 45
20 7 19 16 18 19 15 24 14 27 20 16 9 12 13 16 27 23 33 18 10 31 47 60 60 57 58 56 55 64 62 64 68 74 60 55 62 69 61 51 54 58 54 51
13 10 15 19 14 19 17 15 29 32 13 10 5 3 11 6 9 19 21 11 6 14 26 30 37 45 51 53 52 56 58 69 73 72 55 52 55 57 64 61 66 63 52 53
10 9 6 10 14 25 7 19 33 17 17 19 3 4 8 3 3 17 14 4 7 6 15 21 21 18 14 35 49 53 54 55 60 67 61 71 62 54 63 63 74 69 61 59
7 3 3 4 2 8 20 14 9 5 1 8 3 4 3 3 2 12 12 13 16 16 16 16 14 14 11 12 18 23 42 49 44 47 48 50 50 51 56 63 66 65 61 65
6 6 5 5 14 7 10 7 5 7 7 5 7 2 7 3 4 8 14 29 23 37 31 22 18 17 18 16 21 27 28 28 32 38 38 41 41 39 41 48 48 45 43 47
11 9 16 15 6 6 6 3 7 10 8 7 7 8 5 7 19 15 14 12 16 29 31 25 24 28 32 30 28 28 32 39 38 30 33 33 33 34 38 42 38 37 35 34
4 10 7 11 8 5 11 8 2 12 5 7 5 4 2 8 18 20 24 25 28 27 13 8 8 15 23 32 35 37 36 35 39 40 36 36 34 36 37 37 35 37 35 35
3 8 6 5 5 12 1 1 2 6 7 8 7 4 5 15 13 11 14 23 27 26 23 14 6 3 5 15 22 29 37 31 32 31 30 30 28 27 26 27 28 31 33 34
4 5 5 4 9 5 6 4 10 8 3 7 6 4 4 9 7 7 10 22 27 27 26 24 21 16 11 8 9 21 28 31 29 29 28 25 23 23 23 21 20 24 30 31
5 7 8 1 8 6 4 5 5 7 6 8 6 3 5 4 2 10 12 18 26 27 24 22 22 22 23 20 11 1 9 17 19 21 21 21 22 21 21 21 24 34 38 38
3 7 5 13 6 4 11 8 7 7 5 4 7 5 3 7 8 15 17 10 12 19 26 21 17 15 16 16 16 10 4 8 13 16 18 21 23 23 23 25 31 37 38 37
8 7 6 8 4 2 7 8 6 6 6 4 2 1 2 11 11 24 25 20 23 29 27 18 19 18 17 17 15 13 12 11 14 19 24 26 27 26 26 29 36 40 41 41
7 7 5 7 6 7 6 8 6 8 5 7 3 3 9 12 12 22 30 30 28 26 24 27 27 26 20 17 20 21 21 22 24 24 26 28 30 33 36 40 43 44 45 39
7 2 5 9 10 9 5 4 6 6 4 0 3 5 3 21 24 32 35 33 34 35 34 33 34 35 33 29 25 23 21 27 31 32 31 33 37 41 42 45 48 51 51 46
6 6 5 3 8 6 8 4 2 3 4 3 3 4 9 9 20 34 37 38 38 36 35 38 39 38 37 38 38 36 34 34 36 39 41 44 43 46 49 52 54 54 51 46
7 6 4 2 6 6 8 7 3 7 10 11 8 10 11 16 30 8 25 36 39 42 47 50 49 46 44 43 43 44 42 42 44 44 47 51 52 51 55 56 56 55 55 48
9 7 7 5 1 6 2 4 2 3 2 8 6 9 17 37 27 9 22 45 47 49 50 51 52 54 55 53 49 50 48 45 47 49 50 52 57 57 57 57 55 57 53 47
9 11 7 3 5 5 8 3 2 4 5 2 4 9 16 30 12 10 55 65 65 61 61 64 64 64 61 58 57 58 53 49 50 46 49 52 57 60 57 54 55 54 49 45
5 5 7 3 1 10 9 6 2 3 5 5 9 17 19 7 18 48 63 66 69 74 77 73 72 71 70 62 57 63 60 57 47 49 48 48 49 57 54 53 53 52 51 48
10 9 6 4 3 9 7 4 10 5 4 7 12 22 31 38 48 56 63 65 67 70 67 69 76 74 68 62 61 64 62 52 52 48 49 48 46 55 56 54 51 51 52 49
4 10 8 13 9 5 5 8 17 5 5 7 21 29 33 40 47 52 54 58 61 61 64 67 72 69 63 61 59 63 62 52 52 50 47 46 45 54 54 55 55 56 55 52
5 7 5 3 6 11 15 17 7 5 10 20 27 29 32 41 44 52 55 56 59 61 65 71 62 67 71 72 64 58 56 55 51 49 44 45 49 56 57 58 58 58 59 57
8 13 9 7 7 6 13 24 9 8 17 26 29 32 33 37 48 50 59 62 67 73 73 72 65 79 80 75 75 55 47 50 46 42 40 45 50 59 63 64 65 63 57 50
19 13 10 10 21 11 13 29 11 10 18 22 28 34 33 33 42 48 55 59 65 70 67 65 79 78 70 58 51 51 43 43 39 33 35 42 48 56 59 58 58 53 47 44
Wind_Direction_500mb
202 221 230 202 196 266 53 179 171 171 152 138 196 54 307 304 309 295 300 283 188 176 182 216 253 216 197 182 192 178 184 189 195 222 216 228 233 239 240 233 232 237 236 234
229 243 237 207 205 231 167 195 161 119 147 118 159 89 272 290 274 268 289 283 147 180 176 187 193 209 194 201 199 211 210 205 202 224 222 232 226 230 244 255 260 250 246 243
245 291 172 166 190 184 226 204 154 135 117 83 107 25 282 246 244 302 273 259 150 152 169 184 199 199 209 210 207 211 230 216 216 226 229 225 223 230 247 250 258 256 255 252
237 221 168 163 209 189 177 193 145 146 166 94 25 218 267 264 311 251 283 233 161 140 139 150 169 191 204 207 212 220 223 220 233 234 235 241 240 243 248 261 265 272 268 264
68 136 137 161 181 196 194 142 140 163 110 124 97 80 287 310 255 281 271 240 234 173 158 154 154 162 170 192 206 220 228 232 236 233 231 241 237 234 240 245 251 272 274 272
86 339 185 289 228 180 135 102 98 103 150 59 111 155 63 81 199 304 360 324 273 246 223 194 190 193 206 202 205 210 221 227 231 233 234 239 245 245 246 249 249 254 261 259
158 105 191 49 101 36 86 73 43 28 47 80 317 50 33 339 59 273 305 305 268 237 237 228 236 249 245 252 247 238 231 226 228 234 236 239 244 244 246 248 253 258 253 249
27 64 11 348 56 122 82 136 156 143 129 170 248 51 26 327 60 39 26 335 256 215 225 235 245 253 251 246 244 241 241 238 234 234 234 241 245 244 247 251 253 258 256 258
59 50 16 16 19 4 313 38 275 106 66 94 349 328 170 44 61 47 51 67 79 105 140 179 225 251 247 242 241 244 249 244 241 241 238 238 242 246 248 252 253 254 249 242
68 99 13 18 56 321 292 257 63 13 98 82 37 50 315 345 359 14 38 49 66 78 90 86 57 33 307 257 246 243 237 241 246 241 236 235 236 241 246 251 251 245 231 216
39 43 319 11 22 341 353 13 48 108 48 123 102 343 253 294 311 21 44 65 65 69 72 69 61 40 19 9 257 246 237 235 243 236 235 242 248 250 249 243 234 209 203 209
334 106 65 174 270 258 3 40 75 96 344 47 89 330 333 285 70 113 53 58 62 48 34 34 37 34 30 26 23 43 225 233 233 228 231 238 245 248 248 240 219 206 205 204
6 14 37 351 6 50 51 27 56 70 69 358 99 201 132 38 36 39 19 33 31 15 6 355 354 356 354 2 14 6 271 236 237 241 249 254 256 251 240 225 208 203 199 199
85 64 113 157 236 297 56 34 40 97 72 167 53 46 350 14 1 336 358 351 327 329 333 340 336 321 302 298 299 287 283 274 254 247 244 245 244 242 236 223 212 207 206 207
79 95 72 46 27 50 55 33 25 76 144 99 230 254 324 340 330 331 341 347 344 344 338 336 341 347 346 321 288 280 272 258 252 245 247 246 242 235 227 222 217 216 211 219
16 99 83 31 13 27 94 74 67 77 100 139 245 305 6 346 26 14 5 10 13 9 6 1 354 345 337 329 315 303 285 263 254 250 249 245 240 236 234 230 224 218 221 230
56 117 65 330 341 7 28 24 85 98 155 145 111 63 342 350 347 2 11 18 9 3 356 345 340 337 331 324 317 305 293 282 272 257 246 239 236 233 230 228 227 228 227 223
116 93 78 165 4 45 245 305 239 86 31 6 50 25 21 339 332 68 29 7 351 342 334 330 327 321 316 314 312 307 300 289 277 268 254 241 233 228 224 223 221 220 219 219
47 104 75 96 137 256 47 355 77 168 26 356 43 352 344 349 333 272 336 337 329 322 316 313 311 309 307 306 304 300 299 296 285 273 263 249 236 232 228 224 224 222 221 222
42 65 99 95 103 193 230 271 23 71 253 17 38 352 343 354 347 287 320 321 317 312 306 302 299 298 294 296 298 293 293 290 291 285 269 257 239 233 231 229 224 223 222 221
31 17 125 154 186 286 237 276 136 128 228 339 350 341 336 310 275 299 310 309 308 306 305 304 301 301 296 292 291 285 287 285 292 284 273 259 246 232 231 227 221 220 217 214
174 143 184 100 113 292 191 130 170 156 124 337 328 328 316 313 312 312 312 314 320 319 316 307 305 297 294 294 290 286 278 285 286 282 273 257 243 224 223 220 218 214 214 217
222 184 183 181 211 182 164 152 134 87 355 327 319 319 321 314 318 317 314 312 312 315 312 315 310 309 303 300 296 286 280 281 279 278 272 250 235 219 218 216 213 213 214 218
241 185 188 108 209 195 164 162 160 360 331 325 324 323 325 325 324 316 317 315 312 312 313 319 312 306 302 299 295 289 279 278 272 274 266 236 225 214 212 212 215 218 218 220
198 146 179 263 254 171 218 196 214 307 328 330 328 331 328 320 315 321 322 323 323 321 321 320 311 307 296 290 287 288 272 268 266 265 252 227 219 214 212 211 214 214 220 226
192 181 173 219 194 166 167 197 248 297 325 332 335 330 326 330 324 323 320 317 318 321 322 323 316 314 308 294 281 282 259 255 249 248 238 223 217 213 212 216 212 213 218 219
Wind_Speed_850mb
11 8 12 22 23 3 5 17 22 8 21 17 14 3 11 31 33 45 31 18 37 58 50 29 23 46 64 60 57 48 59 55 55 47 63 57 48 42 43 43 43 38 42 39
8 17 16 22 21 18 4 20 13 19 22 7 13 4 10 13 29 39 28 14 23 45 55 57 55 42 60 63 90 65 63 56 60 55 63 64 57 44 63 46 50 48 48 45
20 7 19 16 18 19 15 24 14 27 20 16 9 12 13 16 27 23 33 18 10 31 47 60 60 57 58 56 55 64 62 64 68 74 60 55 62 69 61 51 54 58 54 51
13 10 15 19 14 19 17 15 29 32 13 10 5 3 11 6 9 19 21 11 6 14 26 30 37 45 51 53 52 56 58 69 73 72 55 52 55 57 64 61 66 63 52 53
10 9 6 10 14 25 7 19 33 17 17 19 3 4 8 3 3 17 14 4 7 6 15 21 21 18 14 35 49 53 54 55 60 67 61 71 62 54 63 63 74 69 61 59
7 3 3 4 2 8 20 14 9 5 1 8 3 4 3 3 2 12 12 13 16 16 16 16 14 14 11 12 18 23 42 49 44 47 48 50 50 51 56 63 66 65 61 65
6 6 5 5 14 7 10 7 5 7 7 5 7 2 7 3 4 8 14 29 23 37 31 22 18 17 18 16 21 27 28 28 32 38 38 41 41 39 41 48 48 45 43 47
11 9 16 15 6 6 6 3 7 10 8 7 7 8 5 7 19 15 14 12 16 29 31 25 24 28 32 30 28 28 32 39 38 30 33 33 33 34 38 42 38 37 35 34
4 10 7 11 8 5 11 8 2 12 5 7 5 4 2 8 18 20 24 25 28 27 13 8 8 15 23 32 35 37 36 35 39 40 36 36 34 36 37 37 35 37 35 35
3 8 6 5 5 12 1 1 2 6 7 8 7 4 5 15 13 11 14 23 27 26 23 14 6 3 5 15 22 29 37 31 32 31 30 30 28 27 26 27 28 31 33 34
4 5 5 4 9 5 6 4 10 8 3 7 6 4 4 9 7 7 10 22 27 27 26 24 21 16 11 8 9 21 28 31 29 29 28 25 23 23 23 21 20 24 30 31
5 7 8 1 8 6 4 5 5 7 6 8 6 3 5 4 2 10 12 18 26 27 24 22 22 22 23 20 11 1 9 17 19 21 21 21 22 21 21 21 24 34 38 38
3 7 5 13 6 4 11 8 7 7 5 4 7 5 3 7 8 15 17 10 12 19 26 21 17 15 16 16 16 10 4 8 13 16 18 21 23 23 23 25 31 37 38 37
8 7 6 8 4 2 7 8 6 6 6 4 2 1 2 11 11 24 25 20 23 29 27 18 19 18 17 17 15 13 12 11 14 19 24 26 27 26 26 29 36 40 41 41
7 7 5 7 6 7 6 8 6 8 5 7 3 3 9 12 12 22 30 30 28 26 24 27 27 26 20 17 20 21 21 22 24 24 26 28 30 33 36 40 43 44 45 39
7 2 5 9 10 9 5 4 6 6 4 0 3 5 3 21 24 32 35 33 34 35 34 33 34 35 33 29 25 23 21 27 31 32 31 33 37 41 42 45 48 51 51 46
6 6 5 3 8 6 8 4 2 3 4 3 3 4 9 9 20 34 37 38 38 36 35 38 39 38 37 38 38 36 34 34 36 39 41 44 43 46 49 52 54 54 51 46
7 6 4 2 6 6 8 7 3 7 10 11 8 10 11 16 30 8 25 36 39 42 47 50 49 46 44 43 43 44 42 42 44 44 47 51 52 51 55 56 56 55 55 48
9 7 7 5 1 6 2 4 2 3 2 8 6 9 17 37 27 9 22 45 47 49 50 51 52 54 55 53 49 50 48 45 47 49 50 52 57 57 57 57 55 57 53 47
9 11 7 3 5 5 8 3 2 4 5 2 4 9 16 30 12 10 55 65 65 61 61 64 64 64 61 58 57 58 53 49 50 46 49 52 57 60 57 54 55 54 49 45
5 5 7 3 1 10 9 6 2 3 5 5 9 17 19 7 18 48 63 66 69 74 77 73 72 71 70 62 57 63 60 57 47 49 48 48 49 57 54 53 53 52 51 48
10 9 6 4 3 9 7 4 10 5 4 7 12 22 31 38 48 56 63 65 67 70 67 69 76 74 68 62 61 64 62 52 52 48 49 48 46 55 56 54 51 51 52 49
4 10 8 13 9 5 5 8 17 5 5 7 21 29 33 40 47 52 54 58 61 61 64 67 72 69 63 61 59 63 62 52 52 50 47 46 45 54 54 55 55 56 55 52
5 7 5 3 6 11 15 17 7 5 10 20 27 29 32 41 44 52 55 56 59 61 65 71 62 67 71 72 64 58 56 55 51 49 44 45 49 56 57 58 58 58 59 57
8 13 9 7 7 6 13 24 9 8 17 26 29 32 33 37 48 50 59 62 67 73 73 72 65 79 80 75 75 55 47 50 46 42 40 45 50 59 63 64 65 63 57 50
19 13 10 10 21 11 13 29 11 10 18 22 28 34 33 33 42 48 55 59 65 70 67 65 79 78 70 58 51 51 43 43 39 33 35 42 48 56 59 58 58 53 47 44
Wind_Direction_850mb
202 221 230 202 196 266 53 179 171 171 152 138 196 54 307 304 309 295 300 283 188 176 182 216 253 216 197 182 192 178 184 189 195 222 216 228 233 239 240 233 232 237 236 234
229 243 237 207 205 231 167 195 161 119 147 118 159 89 272 290 274 268 289 283 147 180 176 187 193 209 194 201 199 211 210 205 202 224 222 232 226 230 244 255 260 250 246 243
245 291 172 166 190 184 226 204 154 135 117 83 107 25 282 246 244 302 273 259 150 152 169 184 199 199 209 210 207 211 230 216 216 226 229 225 223 230 247 250 258 256 255 252
237 221 168 163 209 189 177 193 145 146 166 94 25 218 267 264 311 251 283 233 161 140 139 150 169 191 204 207 212 220 223 220 233 234 235 241 240 243 248 261 265 272 268 264
68 136 137 161 181 196 194 142 140 163 110 124 97 80 287 310 255 281 271 240 234 173 158 154 154 162 170 192 206 220 228 232 236 233 231 241 237 234 240 245 251 272 274 272
86 339 185 289 228 180 135 102 98 103 150 59 111 155 63 81 199 304 360 324 273 246 223 194 190 193 206 202 205 210 221 227 231 233 234 239 245 245 246 249 249 254 261 259
158 105 191 49 101 36 86 73 43 28 47 80 317 50 33 339 59 273 305 305 268 237 237 228 236 249 245 252 247 238 231 226 228 234 236 239 244 244 246 248 253 258 253 249
27 64 11 348 56 122 82 136 156 143 129 170 248 51 26 327 60 39 26 335 256 215 225 235 245 253 251 246 244 241 241 238 234 234 234 241 245 244 247 251 253 258 256 258
59 50 16 16 19 4 313 38 275 106 66 94 349 328 170 44 61 47 51 67 79 105 140 179 225 251 247 242 241 244 249 244 241 241 238 238 242 246 248 252 253 254 249 242
68 99 13 18 56 321 292 257 63 13 98 82 37 50 315 345 359 14 38 49 66 78 90 86 57 33 307 257 246 243 237 241 246 241 236 235 236 241 246 251 251 245 231 216
39 43 319 11 22 341 353 13 48 108 48 123 102 343 253 294 311 21 44 65 65 69 72 69 61 40 19 9 257 246 237 235 243 236 235 242 248 250 249 243 234 209 203 209
334 106 65 174 270 258 3 40 75 96 344 47 89 330 333 285 70 113 53 58 62 48 34 34 37 34 30 26 23 43 225 233 233 228 231 238 245 248 248 240 219 206 205 204
6 14 37 351 6 50 51 27 56 70 69 358 99 201 132 38 36 39 19 33 31 15 6 355 354 356 354 2 14 6 271 236 237 241 249 254 256 251 240 225 208 203 199 199
85 64 113 157 236 297 56 34 40 97 72 167 53 46 350 14 1 336 358 351 327 329 333 340 336 321 302 298 299 287 283 274 254 247 244 245 244 242 236 223 212 207 206 207
79 95 72 46 27 50 55 33 25 76 144 99 230 254 324 340 330 331 341 347 344 344 338 336 341 347 346 321 288 280 272 258 252 245 247 246 242 235 227 222 217 216 211 219
16 99 83 31 13 27 94 74 67 77 100 139 245 305 6 346 26 14 5 10 13 9 6 1 354 345 337 329 315 303 285 263 254 250 249 245 240 236 234 230 224 218 221 230
56 117 65 330 341 7 28 24 85 98 155 145 111 63 342 350 347 2 11 18 9 3 356 345 340 337 331 324 317 305 293 282 272 257 246 239 236 233 230 228 227 228 227 223
116 93 78 165 4 45 245 305 239 86 31 6 50 25 21 339 332 68 29 7 351 342 334 330 327 321 316 314 312 307 300 289 277 268 254 241 233 228 224 223 221 220 219 219
47 104 75 96 137 256 47 355 77 168 26 356 43 352 344 349 333 272 336 337 329 322 316 313 311 309 307 306 304 300 299 296 285 273 263 249 236 232 228 224 224 222 221 222
42 65 99 95 103 193 230 271 23 71 253 17 38 352 343 354 347 287 320 321 317 312 306 302 299 298 294 296 298 293 293 290 291 285 269 257 239 233 231 229 224 223 222 221
31 17 125 154 186 286 237 276 136 128 228 339 350 341 336 310 275 299 310 309 308 306 305 304 301 301 296 292 291 285 287 285 292 284 273 259 246 232 231 227 221 220 217 214
174 143 184 100 113 292 191 130 170 156 124 337 328 328 316 313 312 312 312 314 320 319 316 307 305 297 294 294 290 286 278 285 286 282 273 257 243 224 223 220 218 214 214 217
222 184 183 181 211 182 164 152 134 87 355 327 319 319 321 314 318 317 314 312 312 315 312 315 310 309 303 300 296 286 280 281 279 278 272 250 235 219 218 216 213 213 214 218
241 185 188 108 209 195 164 162 160 360 331 325 324 323 325 325 324 316 317 315 312 312 313 319 312 306 302 299 295 289 279 278 272 274 266 236 225 214 212 212 215 218 218 220
198 146 179 263 254 171 218 196 214 307 328 330 328 331 328 320 315 321 322 323 323 321 321 320 311 307 296 290 287 288 272 268 266 265 252 227 219 214 212 211 214 214 220 226
192 181 173 219 194 166 167 197 248 297 325 332 335 330 326 330 324 323 320 317 318 321 322 323 316 314 308 294 281 282 259 255 249 248 238 223 217 213 212 216 212 213 218 219